This demonstration page uses our WeatherBlox Daily Observations layout. Learn more.

Left ArrowRight Arrow

40.92945, -100.16068

Hourly Observations for September 22, 2017

Temp ( °F °C ) Dew Point ( °F °C ) Humidity (%) Winds ( mph kmh ) Pressure ( in mb ) Visibility ( mi km ) Precip ( " mm )
12:15 am 00:15 Clear 78 25.7 58 14.3 49 49 SSE 17 28 29.56 1001 10 16 0.00 0.00
12:35 am 00:35 Clear 79 25.9 61 16.1 55 55 SSE 16 26 29.56 1001 10 16 0.00 0.00
12:55 am 00:55 Clear 81 27 65 18.1 58 58 SSE 20 31 29.56 1001 10 16 0.00 0.00
1:15 am 01:15 Clear 82 27.5 65 18.6 58 58 S 22 35 29.53 1000 10 16 0.00 0.00
1:35 am 01:35 Clear 82 27.5 66 18.8 59 59 S 23 37 29.53 1000 10 16 0.00 0.00
1:55 am 01:55 Clear 81 27.2 66 19 61 61 S 21 33 29.56 1001 10 16 0.00 0.00
2:15 am 02:15 Clear 81 27 66 19 62 62 S 23 37 29.56 1001 10 16 0.00 0.00
2:35 am 02:35 Clear 80 26.7 66 19 63 63 S 23 37 29.56 1001 10 16 0.00 0.00
2:55 am 02:55 Clear 80 26.5 66 19 63 63 S 23 37 29.56 1001 10 16 0.00 0.00
3:15 am 03:15 Clear 79 26 66 19 65 65 SSE 22 35 29.56 1001 10 16 0.00 0.00
3:35 am 03:35 Clear 78 25.6 66 19 67 67 SSE 21 33 29.56 1001 10 16 0.00 0.00
3:55 am 03:55 Clear 78 25.5 66 19.1 68 68 SSE 17 28 29.56 1001 10 16 0.00 0.00
4:15 am 04:15 Clear 78 25.3 66 19.1 69 69 S 17 28 29.56 1001 10 16 0.00 0.00
4:35 am 04:35 Clear 77 25.2 66 19 69 69 S 20 31 29.56 1001 10 16 0.00 0.00
4:55 am 04:55 Clear 77 25.1 66 19 69 69 SSE 15 24 29.56 1001 10 16 0.00 0.00
5:15 am 05:15 Clear 77 25 66 19 69 69 S 18 30 29.56 1001 10 16 0.00 0.00
5:35 am 05:35 Clear 76 24.7 66 18.7 69 69 S 16 26 29.56 1001 10 16 0.00 0.00
5:55 am 05:55 Clear 76 24.5 65 18.6 70 70 S 16 26 29.56 1001 10 16 0.00 0.00
6:15 am 06:15 Clear 76 24.3 65 18.5 70 70 S 15 24 29.56 1001 10 16 0.00 0.00
6:35 am 06:35 Clear 76 24.2 65 18.4 70 70 S 15 24 29.59 1002 10 16 0.00 0.00
6:55 am 06:55 Clear 76 24.3 65 18.3 69 69 S 16 26 29.56 1001 10 16 0.00 0.00
7:15 am 07:15 Clear 75 24.1 65 18.1 69 69 S 16 26 29.62 1003 10 16 0.00 0.00
7:35 am 07:35 Sunny 75 24.1 64 18 69 69 S 17 28 29.62 1003 10 16 0.00 0.00
7:55 am 07:55 Sunny 75 24 64 18 69 69 S 14 22 29.62 1003 10 16 0.00 0.00
8:15 am 08:15 Sunny 76 24.3 64 18 68 68 S 16 26 29.59 1002 10 16 0.00 0.00
8:35 am 08:35 Sunny 77 24.8 64 18 66 66 S 18 30 29.59 1002 10 16 0.00 0.00
8:55 am 08:55 Sunny 78 25.5 64 17.7 62 62 S 18 30 29.59 1002 10 16 0.00 0.00
9:15 am 09:15 Sunny 79 26.2 64 17.5 59 59 S 18 30 29.59 1002 10 16 0.00 0.00
9:35 am 09:35 Sunny 81 27 63 17.3 55 55 SSW 20 31 29.62 1003 10 16 0.00 0.00
9:55 am 09:55 Sunny 82 27.9 63 17.1 52 52 S 21 33 29.62 1003 10 16 0.00 0.00
10:15 am 10:15 Sunny 83 28.6 62 16.9 49 49 S 20 31 29.59 1002 10 16 0.00 0.00
10:35 am 10:35 Sunny 85 29.4 61 16.3 45 45 SSW 22 35 29.59 1002 10 16 0.00 0.00
10:55 am 10:55 Sunny 86 30 61 16 43 43 SSW 20 31 29.59 1002 10 16 0.00 0.00
11:15 am 11:15 Sunny 88 31.2 60 15.4 38 38 SSW 21 33 29.56 1001 10 16 0.00 0.00
11:35 am 11:35 Sunny 89 31.8 58 14.7 35 35 SSW 23 37 29.53 1000 10 16 0.00 0.00
11:55 am 11:55 Sunny 91 32.6 58 14.2 33 33 SSW 23 37 29.53 1000 10 16 0.00 0.00
12:15 pm 12:15 Sunny 92 33.5 57 13.9 31 31 SSW 26 43 29.53 1000 10 16 0.00 0.00
12:35 pm 12:35 Sunny 94 34.4 57 13.7 29 29 S 24 39 29.53 1000 10 16 0.00 0.00
12:55 pm 12:55 Sunny 94 34.4 56 13.4 28 28 S 23 37 29.53 1000 10 16 0.00 0.00
1:15 pm 13:15 Sunny 96 35.5 55 12.6 25 25 S 23 37 29.50 999 10 16 0.00 0.00
1:35 pm 13:35 Sunny 96 35.6 54 12.2 24 24 S 22 35 29.50 999 10 16 0.00 0.00
1:55 pm 13:55 Sunny 97 36.1 55 12.7 24 24 S 22 35 29.50 999 10 16 0.00 0.00
2:15 pm 14:15 Sunny 96 35.6 54 12.2 24 24 S 22 35 29.47 998 10 16 0.00 0.00
2:35 pm 14:35 Sunny 98 36.4 52 11.2 22 22 S 22 35 29.47 998 10 16 0.00 0.00
2:55 pm 14:55 Sunny 98 36.6 53 11.6 22 22 S 29 46 29.47 998 10 16 0.00 0.00
3:15 pm 15:15 Sunny 97 36 51 10.8 22 22 S 24 39 29.47 998 10 16 0.00 0.00
3:35 pm 15:35 Sunny 98 36.9 52 11 21 21 SSW 26 43 29.47 998 10 16 0.00 0.00
3:55 pm 15:55 Partly Cloudy 99 37 49 9.6 19 19 SSW 22 35 29.47 998 10 16 0.00 0.00
4:15 pm 16:15 Partly Cloudy 96 35.5 48 9.1 20 20 SSW 17 28 29.47 998 10 16 0.00 0.00
4:35 pm 16:35 Sunny 97 36.2 47 8.6 18 18 SSW 25 41 29.47 998 10 16 0.00 0.00
4:55 pm 16:55 Partly Cloudy 96 35.6 48 9.1 20 20 S 20 31 29.47 998 10 16 0.00 0.00
5:15 pm 17:15 Partly Cloudy 96 35.3 53 11.8 24 24 S 26 43 29.47 998 10 16 0.00 0.00
5:35 pm 17:35 Sunny 94 34.3 53 11.9 26 26 SSE 28 44 29.50 999 10 16 0.00 0.00
5:55 pm 17:55 Sunny 93 33.9 53 11.7 26 26 S 22 35 29.50 999 10 16 0.00 0.00
6:15 pm 18:15 Sunny 92 33.6 52 11.1 25 25 S 21 33 29.50 999 10 16 0.00 0.00
6:35 pm 18:35 Sunny 92 33.2 52 11.2 26 26 SSE 17 28 29.50 999 10 16 0.00 0.00
6:55 pm 18:55 Sunny 90 32.1 52 11.2 28 28 SSE 15 24 29.53 1000 10 16 0.00 0.00
7:15 pm 19:15 Sunny 88 31.1 52 11.1 29 29 SSE 13 20 29.56 1001 10 16 0.00 0.00
7:35 pm 19:35 Sunny 86 30.2 53 11.4 31 31 SSE 10 17 29.56 1001 10 16 0.00 0.00
7:55 pm 19:55 Clear 85 29.5 53 11.4 33 33 SE 8 13 29.56 1001 10 16 0.00 0.00
8:15 pm 20:15 Clear 83 28.6 54 12.1 36 36 SE 10 17 29.56 1001 10 16 0.00 0.00
8:35 pm 20:35 Clear 83 28.6 56 13.5 39 39 SSE 13 20 29.56 1001 10 16 0.00 0.00
8:55 pm 20:55 Clear 84 29.1 57 14 40 40 SSE 15 24 29.59 1002 10 16 0.00 0.00
9:15 pm 21:15 Clear 85 29.2 57 14 39 39 SSE 17 28 29.59 1002 10 16 0.00 0.00
9:35 pm 21:35 Clear 85 29.2 58 14.2 40 40 SSE 21 33 29.59 1002 10 16 0.00 0.00
9:55 pm 21:55 Clear 84 29.1 58 14.3 40 40 SSE 17 28 29.59 1002 10 16 0.00 0.00
10:15 pm 22:15 Clear 83 28.5 58 14.5 42 42 SSE 17 28 29.62 1003 10 16 0.00 0.00
10:35 pm 22:35 Clear 83 28.1 58 14.6 44 44 SSE 20 31 29.65 1004 10 16 0.00 0.00
10:55 pm 22:55 Clear 82 28 59 14.9 45 45 SSE 20 31 29.65 1004 10 16 0.00 0.00
11:15 pm 23:15 Clear 82 27.5 59 15 46 46 SSE 20 31 29.65 1004 10 16 0.00 0.00
11:35 pm 23:35 Clear 81 27 60 15.3 49 49 SSE 16 26 29.65 1004 10 16 0.00 0.00
11:55 pm 23:55 Clear 80 26.5 60 15.5 51 51 SSE 14 22 29.65 1004 10 16 0.00 0.00

Powered by AerisWeather